sat.trackr.live / text

‹ back to catalog

STARLINK-4720

NORAD 53800 · 2022-111AD

PAYLOAD ACTIVE UNKNOWN

§ Identity

Operator
Country
US
Launch date
2022-09-11
Launch site
AFETR
Launch vehicle
Mass (kg)
RCS (m²)

Purposes: comms

External: N2YO · Heavens-Above · Gunter

§ Orbital elements

Epoch: 2026-09-20T14:21:10.109088Z

Period
91.78 min
Inclination
53.2063°
Eccentricity
0.0002188
Mean motion
15.69027246 rev/d
Perigee alt
360.2 km
Apogee alt
363.2 km
Semi-major
6,739.8 km
B*
4.1818e-4
RAAN
13.1467°
Arg perigee
54.9445°
Mean anomaly
305.1778°
Rev number
22,459

§ Raw data

STARLINK-47201 53800U 22111AD  26263.59803367  .00048960  00000+0  41818-3 0  99942 53800  53.2063  13.1467 0002188  54.9445 305.1778 15.69027246224594

JSON: /api/v1/satellites/53800 · /tle

For live sub-satellite position, see the globe view (requires WebGL).

§ Visibility from observer

Set your observer location to see the next 7 days of passes ≥ 10°. The values pass through the URL so the page stays shareable.

No JS? Fill the form by hand. The geolocation button needs JavaScript.